Ono, PA

4:57 AM EST on February 13, 2016 (GMT -0500)
Muir Army Air Field

Weather History for KMUI - January, 2013

Change the Weather History Date:

Wednesday, January 30, 2013

  Actual Average Record
Temperature  
Mean Temperature 50 °F -  
Max Temperature 59 °F 35 °F 59 °F (2002)
Min Temperature 41 °F 23 °F 0 °F (2014)
Degree Days  
Heating Degree Days 15    
Moisture  
Dew Point 49 °F    
Average Humidity 100    
Maximum Humidity 100    
Minimum Humidity 100    
Precipitation  
Precipitation 1.28 in - - ()
Sea Level Pressure  
Sea Level Pressure 29.66 in    
Wind  
Wind Speed 4 mph (NE)    
Max Wind Speed 12 mph    
Max Gust Speed 21 mph    
Visibility 2 miles    
Events Fog , Rain    
Averages and records for this station are not official NWS values.
T = Trace of Precipitation, MM = Missing Value Source: NWS Daily Summary

Daily Weather History Graph

Daily Weather History Graph

Search for Another Location

Airport or City:

Trip Planner

Search our weather history database for the weather conditions in past years. The results will help you decide how hot, cold, wet, or windy it might be!

Date:

Astronomy

Jan. 30, 2013 Rise Set
Actual Time 7:17 AM EST 5:22 PM EST
Civil Twilight 6:48 AM EST 5:51 PM EST
Nautical Twilight 6:15 AM EST 6:24 PM EST
Astronomical Twilight 5:43 AM EST 6:56 PM EST
Moon 9:19 PM EST (1/30) 8:43 AM EST (1/30)
Length of Visible Light 11h 03m
Length of Day
10h 05m
Waning Gibbous, 88% of the Moon is Illuminated
Jan 30
Waning Gibbous
Feb 3
Last Quarter
Feb 10
New
Feb 17
First Quarter
Feb 25
Full

Hourly Weather History & Observations

Time (EST) Temp. Windchill Dew Point Humidity Pressure Visibility Wind Dir Wind Speed Gust Speed Precip Events Conditions
12:00 AM 41.0 °F 38.0 °F 41.0 °F 100% 30.01 in 1.5 mi NE 4.6 mph - N/A   Clear
12:03 AM 41.0 °F 38.0 °F 41.0 °F 100% 30.00 in 1.2 mi NE 4.6 mph - N/A   Clear
12:05 AM 41.0 °F 38.0 °F 41.0 °F 100% 30.00 in 1.5 mi NE 4.6 mph - N/A   Clear
12:08 AM 41.0 °F 37.1 °F 41.0 °F 100% 30.00 in 1.8 mi NE 5.8 mph - N/A   Clear
12:11 AM 41.0 °F 38.0 °F 41.0 °F 100% 30.00 in 2.0 mi NE 4.6 mph - N/A   Clear
12:25 AM 41.0 °F 39.0 °F 41.0 °F 100% 30.00 in 3.0 mi NE 3.5 mph - N/A   Clear
12:34 AM 41.0 °F 38.0 °F 41.0 °F 100% 29.99 in 2.5 mi ENE 4.6 mph - N/A   Clear
12:35 AM 41.0 °F 38.0 °F 41.0 °F 100% 29.99 in 3.0 mi NE 4.6 mph - N/A   Clear
12:52 AM 42.8 °F 41.1 °F 42.8 °F 100% 29.98 in 2.5 mi NE 3.5 mph - N/A   Clear
12:55 AM 41.9 °F 39.0 °F 41.9 °F 100% 29.98 in 2.5 mi NE 4.6 mph - N/A   Partly Cloudy
1:02 AM 41.0 °F 39.0 °F 41.0 °F 100% 29.98 in 1.8 mi NE 3.5 mph - N/A   Scattered Clouds
1:07 AM 41.0 °F 39.0 °F 41.0 °F 100% 29.98 in 1.8 mi Variable 3.5 mph - N/A   Mostly Cloudy
1:08 AM 42.8 °F 41.1 °F 42.8 °F 100% 29.98 in 2.0 mi Variable 3.5 mph - N/A   Mostly Cloudy
1:18 AM 41.0 °F 38.0 °F 41.0 °F 100% 29.97 in 1.8 mi NE 4.6 mph - N/A   Mostly Cloudy
1:22 AM 41.0 °F 38.0 °F 41.0 °F 100% 29.97 in 1.5 mi NE 4.6 mph - N/A   Overcast
1:37 AM 41.0 °F 38.0 °F 41.0 °F 100% 29.97 in 1.5 mi NE 4.6 mph - N/A   Overcast
1:39 AM 41.0 °F 39.0 °F 41.0 °F 100% 29.97 in 1.2 mi NE 3.5 mph - N/A   Overcast
1:42 AM 41.0 °F 38.0 °F 41.0 °F 100% 29.97 in 1.0 mi NE 4.6 mph - N/A   Mist
1:55 AM 41.7 °F 38.8 °F 41.7 °F 100% 29.96 in 1.0 mi NE 4.6 mph - N/A   Mist
1:57 AM 41.0 °F 38.0 °F 41.0 °F 100% 29.96 in 1.2 mi NE 4.6 mph - N/A   Overcast
2:03 AM 42.8 °F 39.3 °F 42.8 °F 100% 29.96 in 1.0 mi NE 5.8 mph - N/A   Mist
2:14 AM 42.8 °F 39.3 °F 42.8 °F 100% 29.95 in 1.2 mi NE 5.8 mph - N/A   Overcast
2:29 AM 42.8 °F 38.6 °F 42.8 °F 100% 29.93 in 1.5 mi ENE 6.9 mph - N/A   Overcast
2:32 AM 42.8 °F 39.3 °F 42.8 °F 100% 29.93 in 1.8 mi ENE 5.8 mph - N/A   Overcast
2:40 AM 42.8 °F 40.1 °F 42.8 °F 100% 29.92 in 1.5 mi NE 4.6 mph - N/A   Overcast
2:47 AM 42.8 °F 41.1 °F 42.8 °F 100% 29.92 in 1.2 mi NE 3.5 mph - N/A   Overcast
2:55 AM 43.2 °F 39.7 °F 43.2 °F 100% 29.93 in 1.2 mi NE 5.8 mph - N/A   Overcast
2:59 AM 42.8 °F 39.3 °F 42.8 °F 100% 29.92 in 1.5 mi NE 5.8 mph - N/A   Overcast
3:04 AM 42.8 °F 39.3 °F 42.8 °F 100% 29.92 in 1.2 mi NE 5.8 mph - N/A   Overcast
3:29 AM 44.6 °F 40.7 °F 44.6 °F 100% 29.90 in 1.0 mi ENE 6.9 mph - N/A   Mist
3:44 AM 42.8 °F 40.1 °F 42.8 °F 100% 29.89 in 0.8 mi NE 4.6 mph - N/A   Mist
3:49 AM 42.8 °F 39.3 °F 42.8 °F 100% 29.89 in 0.5 mi NE 5.8 mph - N/A Fog Fog
3:55 AM 43.2 °F 40.5 °F 43.2 °F 100% 29.89 in 0.5 mi NE 4.6 mph - N/A Fog Fog
4:05 AM 42.8 °F 41.1 °F 42.8 °F 100% 29.89 in 0.2 mi NE 3.5 mph - N/A Fog Fog
4:55 AM 43.0 °F 39.5 °F 43.0 °F 100% 29.88 in 0.2 mi NE 5.8 mph - N/A Fog Fog
5:55 AM 43.0 °F 41.3 °F 43.0 °F 100% 29.86 in 0.2 mi ENE 3.5 mph - N/A Fog Fog
6:08 AM 42.8 °F 40.1 °F 42.8 °F 100% 29.86 in 0.5 mi NNE 4.6 mph - N/A Fog Fog
6:55 AM 43.2 °F 40.5 °F 43.2 °F 100% 29.84 in 0.5 mi NE 4.6 mph - N/A Fog Fog
7:09 AM 42.8 °F 40.1 °F 42.8 °F 100% 29.83 in 0.8 mi NE 4.6 mph - N/A   Mist
7:24 AM 42.8 °F 41.1 °F 42.8 °F 100% 29.82 in 0.5 mi NE 3.5 mph - N/A Fog Fog
7:38 AM 44.6 °F 43.1 °F 44.6 °F 100% 29.81 in 0.2 mi NE 3.5 mph - N/A Fog Fog
7:51 AM 44.6 °F 42.2 °F 44.6 °F 100% 29.81 in 0.5 mi NE 4.6 mph - N/A Fog Fog
7:55 AM 44.1 °F - 44.1 °F 100% 29.81 in 0.5 mi Calm Calm - N/A Fog Fog
8:02 AM 44.6 °F 43.1 °F 44.6 °F 100% 29.81 in 0.2 mi NE 3.5 mph - N/A Fog Fog
8:48 AM 44.6 °F 42.2 °F 44.6 °F 100% 29.78 in 0.5 mi NNE 4.6 mph - N/A Fog Fog
8:55 AM 45.0 °F 41.8 °F 45.0 °F 100% 29.78 in 0.5 mi NNE 5.8 mph - N/A Fog Fog
9:22 AM 44.6 °F 42.2 °F 44.6 °F 100% 29.77 in 0.8 mi NNE 4.6 mph - N/A   Mist
9:39 AM 46.4 °F 44.3 °F 46.4 °F 100% 29.75 in 1.0 mi NNE 4.6 mph - N/A   Mist
9:52 AM 46.4 °F 44.3 °F 46.4 °F 100% 29.74 in 1.2 mi NNE 4.6 mph - N/A   Overcast
9:55 AM 46.9 °F - 46.9 °F 100% 29.75 in 1.2 mi NNE 4.6 mph - N/A   Overcast
9:57 AM 46.4 °F 43.5 °F 46.4 °F 100% 29.74 in 1.5 mi NNE 5.8 mph - N/A   Mostly Cloudy
10:09 AM 48.2 °F - 48.2 °F 100% 29.74 in 1.8 mi NNE 5.8 mph - N/A   Mostly Cloudy
10:16 AM 48.2 °F - 48.2 °F 100% 29.73 in 2.0 mi NNE 4.6 mph - N/A   Mostly Cloudy
10:36 AM 50.0 °F - 50.0 °F 100% 29.72 in 2.0 mi Variable 3.5 mph - N/A   Mostly Cloudy
10:51 AM 50.0 °F - 50.0 °F 100% 29.71 in 2.5 mi NE 3.5 mph - N/A   Mostly Cloudy
10:55 AM 50.0 °F - 50.0 °F 100% 29.70 in 2.5 mi North 3.5 mph - N/A   Mostly Cloudy
11:03 AM 50.0 °F - 50.0 °F 100% 29.70 in 3.0 mi NNE 4.6 mph - N/A   Mostly Cloudy
11:55 AM 52.2 °F - 52.2 °F 100% 29.66 in 4.0 mi Calm Calm - N/A   Mostly Cloudy
12:55 PM 54.7 °F - 54.7 °F 100% 29.60 in 6.0 mi North 3.5 mph - N/A   Mostly Cloudy
12:58 PM 55.4 °F - 55.4 °F 100% 29.60 in 7.0 mi Calm Calm - N/A Rain Light Rain
1:26 PM 53.6 °F - 53.6 °F 100% 29.58 in 2.5 mi Calm Calm - N/A Rain Light Rain
1:31 PM 53.6 °F - 53.6 °F 100% 29.58 in 1.8 mi Calm Calm - N/A Rain Light Rain
1:32 PM 53.6 °F - 53.6 °F 100% 29.58 in 7.0 mi Calm Calm - N/A Rain Light Rain
1:52 PM 53.6 °F - 53.6 °F 100% 29.57 in 7.0 mi Calm Calm - N/A Fog Patches of Fog
1:55 PM 53.4 °F - 53.4 °F 100% 29.56 in 7.0 mi Calm Calm - 0.02 in Fog Patches of Fog
2:30 PM 57.2 °F - 57.2 °F 100% 29.60 in 4.0 mi West 11.5 mph 20.7 mph N/A Rain Light Rain
2:32 PM 57.2 °F - 57.2 °F 100% 29.60 in 1.8 mi WNW 8.1 mph 20.7 mph N/A Rain Light Rain
2:34 PM 59.0 °F - 59.0 °F 100% 29.60 in 1.0 mi NNW 3.5 mph 20.7 mph N/A Rain Heavy Rain
2:36 PM 59.0 °F - 59.0 °F 100% 29.59 in 0.8 mi NW 4.6 mph 20.7 mph N/A Rain Heavy Rain
2:42 PM 59.0 °F - 59.0 °F 100% 29.59 in 1.0 mi WSW 9.2 mph - N/A Rain Rain
2:43 PM 59.0 °F - 59.0 °F 100% 29.59 in 1.2 mi West 9.2 mph - N/A Rain Rain
2:45 PM 59.0 °F - 59.0 °F 100% 29.60 in 1.8 mi West 9.2 mph - N/A Rain Rain
2:46 PM 59.0 °F - 59.0 °F 100% 29.60 in 2.0 mi West 10.4 mph - N/A Rain Rain
2:48 PM 59.0 °F - 59.0 °F 100% 29.60 in 3.0 mi West 6.9 mph - N/A Rain Rain
2:50 PM 59.0 °F - 59.0 °F 100% 29.60 in 3.0 mi West 9.2 mph - N/A Rain Rain
2:55 PM 58.1 °F - 58.1 °F 100% 29.60 in 3.0 mi SW 5.8 mph - 0.22 in Rain Light Rain
3:55 PM 55.4 °F - 55.4 °F 100% 29.60 in 6.0 mi West 4.6 mph - 0.03 in Rain Light Rain
4:20 PM 55.4 °F - 55.4 °F 100% 29.60 in 5.0 mi Calm Calm - N/A Rain Light Rain
4:27 PM 55.4 °F - 55.4 °F 100% 29.60 in 2.5 mi Calm Calm - N/A Rain Light Rain
4:28 PM 55.4 °F - 55.4 °F 100% 29.60 in 1.5 mi Calm Calm - N/A Rain Light Rain
4:38 PM 53.6 °F - 53.6 °F 100% 29.60 in 1.0 mi Calm Calm - N/A Fog , Rain Light Rain
4:41 PM 55.4 °F - 55.4 °F 100% 29.60 in 0.2 mi Calm Calm - N/A Fog , Rain Light Rain
4:55 PM 53.1 °F - 53.1 °F 100% 29.59 in 0.2 mi Calm Calm - 0.04 in Fog , Rain Light Rain
5:26 PM 53.6 °F - 53.6 °F 100% 29.57 in 0.5 mi Calm Calm - N/A Fog , Rain Light Rain
5:55 PM 52.9 °F - 52.9 °F 100% 29.57 in 0.5 mi Calm Calm - 0.04 in Fog , Rain Light Rain
6:14 PM 53.6 °F - 53.6 °F 100% 29.58 in 0.5 mi Calm Calm - N/A Fog , Rain Light Rain
6:16 PM 51.8 °F - 51.8 °F 100% 29.58 in 0.5 mi Calm Calm - N/A Fog , Rain Rain
6:23 PM 51.8 °F - 51.8 °F 100% 29.56 in 0.8 mi NE 3.5 mph - N/A Rain Rain
6:27 PM 53.6 °F - 53.6 °F 100% 29.56 in 0.5 mi NNE 3.5 mph - N/A Fog , Rain Light Rain
6:40 PM 53.6 °F - 53.6 °F 100% 29.55 in 0.8 mi Calm Calm - N/A Rain Rain
6:45 PM 53.6 °F - 53.6 °F 100% 29.55 in 0.5 mi ENE 3.5 mph - N/A Fog , Rain Light Rain
6:47 PM 53.6 °F - 53.6 °F 100% 29.55 in 0.8 mi ENE 4.6 mph - N/A Rain Light Rain
6:55 PM 53.4 °F - 53.4 °F 100% 29.55 in 0.8 mi Calm Calm - 0.15 in Rain Light Rain
7:02 PM 53.6 °F - 53.6 °F 100% 29.54 in 0.5 mi Calm Calm - N/A Fog , Rain Light Rain
7:16 PM 53.6 °F - 53.6 °F 100% 29.53 in 0.8 mi North 3.5 mph - N/A Rain Light Rain
7:20 PM 53.6 °F - 53.6 °F 100% 29.53 in 1.0 mi NNE 3.5 mph - N/A Rain Rain
7:27 PM 53.6 °F - 53.6 °F 100% 29.53 in 1.2 mi Calm Calm - N/A Rain Light Rain
7:31 PM 53.6 °F - 53.6 °F 100% 29.52 in 1.5 mi Calm Calm - N/A Rain Light Rain
7:35 PM 53.6 °F - 53.6 °F 100% 29.52 in 1.2 mi Calm Calm - N/A Rain Rain
7:44 PM 53.6 °F - 53.6 °F 100% 29.51 in 1.0 mi Calm Calm - N/A Rain Light Rain
7:46 PM 53.6 °F - 53.6 °F 100% 29.51 in 0.8 mi Calm Calm - N/A Rain Light Rain
7:55 PM 53.8 °F - 53.8 °F 100% 29.52 in 0.8 mi Calm Calm - 0.14 in Rain Rain
7:57 PM 53.6 °F - 53.6 °F 100% 29.52 in 1.0 mi Calm Calm - N/A Rain Rain
7:59 PM 53.6 °F - 53.6 °F 100% 29.52 in 1.2 mi Calm Calm - N/A Rain Rain
8:05 PM 53.6 °F - 53.6 °F 100% 29.52 in 1.8 mi Calm Calm - N/A Rain Rain
8:10 PM 53.6 °F - 53.6 °F 100% 29.51 in 1.5 mi Calm Calm - N/A Rain Rain
8:12 PM 53.6 °F - 53.6 °F 100% 29.51 in 1.2 mi Calm Calm - N/A Rain Rain
8:13 PM 53.6 °F - 53.6 °F 100% 29.51 in 1.0 mi Calm Calm - N/A Rain Rain
8:14 PM 53.6 °F - 53.6 °F 100% 29.51 in 0.8 mi Calm Calm - N/A Rain Rain
8:17 PM 53.6 °F - 53.6 °F 100% 29.50 in 0.5 mi Calm Calm - N/A Fog , Rain Rain
8:55 PM 52.5 °F - 52.5 °F 100% 29.48 in 0.5 mi Calm Calm - 0.16 in Fog , Rain Light Rain
9:23 PM 51.8 °F - 51.8 °F 100% 29.44 in 0.2 mi NE 5.8 mph - N/A Fog , Rain Light Rain
9:40 PM 51.8 °F - 51.8 °F 100% 29.42 in 0.5 mi NNE 4.6 mph - N/A Fog , Rain Light Rain
9:55 PM 52.3 °F - 52.3 °F 100% 29.42 in 0.5 mi Calm Calm - 0.09 in Fog , Rain Rain
10:24 PM 51.8 °F - 51.8 °F 100% 29.37 in 0.8 mi NNE 5.8 mph - N/A Rain Light Rain
10:27 PM 51.8 °F - 51.8 °F 100% 29.37 in 1.0 mi NNE 5.8 mph - N/A Rain Light Rain
10:29 PM 51.8 °F - 51.8 °F 100% 29.37 in 1.2 mi NE 4.6 mph - N/A Rain Light Rain
10:31 PM 51.8 °F - 51.8 °F 100% 29.37 in 1.5 mi ENE 5.8 mph - N/A Rain Light Rain
10:34 PM 51.8 °F - 51.8 °F 100% 29.37 in 1.8 mi ENE 5.8 mph - N/A Rain Light Rain
10:37 PM 51.8 °F - 51.8 °F 100% 29.37 in 2.0 mi ENE 4.6 mph - N/A Rain Light Rain
10:44 PM 51.8 °F - 51.8 °F 100% 29.34 in 1.5 mi NE 5.8 mph - N/A Rain Light Rain
10:46 PM 51.8 °F - 51.8 °F 100% 29.33 in 1.2 mi NNE 5.8 mph - N/A Rain Rain
10:47 PM 51.8 °F - 51.8 °F 100% 29.34 in 1.0 mi NNE 4.6 mph - N/A Rain Rain
10:53 PM 51.8 °F - 51.8 °F 100% 29.35 in 1.2 mi NE 4.6 mph - N/A Rain Light Rain
10:55 PM 52.3 °F - 52.3 °F 100% 29.34 in 1.2 mi NE 5.8 mph - 0.13 in Rain Light Rain
10:56 PM 51.8 °F - 51.8 °F 100% 29.34 in 1.5 mi NE 4.6 mph - N/A Rain Light Rain
10:59 PM 51.8 °F - 51.8 °F 100% 29.33 in 1.2 mi NE 4.6 mph - N/A Rain Light Rain
11:00 PM 51.8 °F - 51.8 °F 100% 29.33 in 1.0 mi NE 3.5 mph - N/A Rain Light Rain
11:03 PM 51.8 °F - 51.8 °F 100% 29.34 in 0.8 mi NE 3.5 mph - N/A Rain Light Rain
11:07 PM 51.8 °F - 51.8 °F 100% 29.34 in 1.0 mi NE 3.5 mph - N/A Rain Light Rain
11:16 PM 51.8 °F - 51.8 °F 100% 29.33 in 0.8 mi Calm Calm - N/A Rain Rain
11:29 PM 51.8 °F - 51.8 °F 100% 29.33 in 1.0 mi Calm Calm - N/A Rain Rain
11:38 PM 51.8 °F - 51.8 °F 100% 29.31 in 0.8 mi NE 3.5 mph - N/A Rain Rain
11:43 PM 51.8 °F - 51.8 °F 100% 29.30 in 0.5 mi NE 4.6 mph - N/A Fog , Rain Rain
11:55 PM 51.4 °F - 51.4 °F 100% 29.27 in 0.5 mi NE 5.8 mph - 0.26 in Fog , Rain Rain